{"data":{"norad_id":67373,"epoch":"2026-05-24T23:44:35.018880Z","epoch_age_seconds":73158,"freshness":"FRESH","line1":"1 67373U 26004L   26144.98929420  .00000995  00000+0  11474-3 0  9990","line2":"2 67373  97.8015 143.9341 0005208 197.7232 162.3803 14.87854711 19840","mean_motion":14.87854711,"eccentricity":0.0005208,"inclination_deg":97.8015,"raan_deg":143.9341,"arg_perigee_deg":197.7232,"mean_anomaly_deg":162.3803,"bstar":0.00011474,"rev_number":1984,"period_min":96.783643547572,"perigee_km":601.00313856796,"apogee_km":608.27639885025,"semimajor_km":6982.7767687091,"source":"CELESTRAK","updated_at":"2026-05-25T13:38:06.929196Z"}}